Tokyo Narita Airport

Airport
ICAO code: 
RJAA
IATA Code: 
NRT
Summary
ICAO Region: 
APAC
Territory: 
Location: 
Narita, Chiba Prefecture
Serving: 
Tokyo
Elevation: 
135 ft
Coordinates: 
Aerial View: 
35° 46' 24.78" N, 140° 23' 17.664" E
Metar
Observation
RJAA 200930Z 30005KT 9999 FEW030 04/M05 Q1012 NOSIG
Station
New Tokyo Inter-National Airport
Date/Time
2022-01-20 09:30:00
Wind direction
300°
Wind speed
05 kts
Lowest cloud amount
few clouds
Temperature
4°C
Dew point
-5°C
Humidity
51%
QNH
1012 hPa
Weather condition
n/a

Also know as Tokyo Narita Airport or Narita International Airport, Narita was formerly the major international airport serving Tokyo until Haneda reopened to intercontinental traffic. Narita airport is located 57.5 km east of Tokyo and 7 km east-southeast of the city of Narita.

Climatology

Humid subtropical climate (Köppen climate classification Cfa).

Runways

Designator Length Width Surface Rops
16L/34R 2180 60 ASP Yes/Yes
16R/34L 4000 60 ASP Yes/Yes
Airport map: 
Aerial View: 

SKYbrary Partners:

Safety knowledge contributed by: